When you browse on this site, cookies collect data to enhance your experience and personalize the content and advertising you see.
Visit our Privacy Policy to learn more. By continuing to use the site, you agree to this use of cookies and data.
  • Em Portugal
  • Lista de países
  • Para 7 dias
  • Temperatura da água
  • Mapas de satélite
  • Mapa do tempo
  • Widgets de tempo
  • user-avatar
    Iniciar Sessão

    Previsão horária em Burdeki

    Hoje, 26 Junho, Quarta-feira

    Tempo Temperatura Precipitação Vento Pressão Humidade
    00:00 +23°C° 0 mm 2 m/s 698 mmHg 68%
    01:00 +23°C° 0.1 mm 2 m/s 698 mmHg 68%
    02:00 +23°C° 0.1 mm 2 m/s 698 mmHg 67%
    03:00 +22°C° 0.1 mm 3 m/s 698 mmHg 67%
    04:00 +23°C° 0.1 mm 2 m/s 698 mmHg 65%
    05:00 +24°C° 0.1 mm 2 m/s 698 mmHg 64%
    06:00 +25°C° 0.1 mm 2 m/s 699 mmHg 63%
    07:00 +27°C° 0.1 mm 2 m/s 699 mmHg 59%
    08:00 +28°C° 0.1 mm 3 m/s 699 mmHg 55%
    09:00 +30°C° 0.1 mm 3 m/s 700 mmHg 50%
    10:00 +29°C° 1.2 mm 3 m/s 700 mmHg 55%
    11:00 +29°C° 1.2 mm 4 m/s 700 mmHg 60%
    12:00 +28°C° 1.2 mm 4 m/s 700 mmHg 64%
    13:00 +28°C° 1.9 mm 4 m/s 699 mmHg 68%
    14:00 +27°C° 1.9 mm 3 m/s 699 mmHg 72%
    15:00 +27°C° 1.9 mm 3 m/s 699 mmHg 77%
    16:00 +26°C° 0.8 mm 2 m/s 699 mmHg 80%
    17:00 +25°C° 0.8 mm 2 m/s 699 mmHg 83%
    18:00 +24°C° 0.8 mm 1 m/s 699 mmHg 86%
    19:00 +24°C° 1.9 mm 1 m/s 699 mmHg 88%
    20:00 +23°C° 1.9 mm 1 m/s 698 mmHg 91%
    21:00 +22°C° 1.9 mm 1 m/s 698 mmHg 93%
    22:00 +21°C° 0.5 mm 1 m/s 698 mmHg 91%
    23:00 +21°C° 0.5 mm 1 m/s 698 mmHg 90%

    Amanhã, 27 Junho, Quinta-feira

    Tempo Temperatura Precipitação Vento Pressão Humidade
    00:00 +20°C° 0.5 mm 2 m/s 698 mmHg 88%
    01:00 +21°C° 0.1 mm 1 m/s 697 mmHg 86%
    02:00 +20°C° 0.1 mm 1 m/s 697 mmHg 84%
    03:00 +20°C° 0.1 mm 1 m/s 697 mmHg 82%
    04:00 +21°C° 0.1 mm 1 m/s 697 mmHg 80%
    05:00 +21°C° 0.1 mm 1 m/s 697 mmHg 79%
    06:00 +20°C° 0.1 mm 0 m/s 697 mmHg 78%
    07:00 +23°C° 0.2 mm 1 m/s 697 mmHg 75%
    08:00 +24°C° 0.2 mm 2 m/s 697 mmHg 73%
    09:00 +25°C° 0.2 mm 2 m/s 697 mmHg 70%
    10:00 +25°C° 0.2 mm 2 m/s 697 mmHg 70%
    11:00 +25°C° 0.2 mm 3 m/s 697 mmHg 69%
    12:00 +25°C° 0.2 mm 3 m/s 697 mmHg 69%
    13:00 +25°C° 0.2 mm 3 m/s 696 mmHg 70%
    14:00 +25°C° 0.2 mm 2 m/s 696 mmHg 71%
    15:00 +25°C° 0.2 mm 2 m/s 695 mmHg 72%
    16:00 +24°C° 0.4 mm 2 m/s 695 mmHg 74%
    17:00 +24°C° 0.4 mm 2 m/s 695 mmHg 75%
    18:00 +23°C° 0.4 mm 2 m/s 695 mmHg 77%
    19:00 +22°C° 0.2 mm 1 m/s 694 mmHg 79%
    20:00 +21°C° 0.2 mm 1 m/s 694 mmHg 82%
    21:00 +20°C° 0.2 mm 1 m/s 694 mmHg 84%
    22:00 +20°C° 0 mm 1 m/s 694 mmHg 83%
    23:00 +20°C° 0 mm 1 m/s 693 mmHg 82%

    Depois de amanhã, 28 Junho, Sexta-feira

    Tempo Temperatura Precipitação Vento Pressão Humidade
    00:00 +19°C° 0 mm 1 m/s 693 mmHg 81%
    01:00 +19°C° 0 mm 1 m/s 693 mmHg 80%
    02:00 +19°C° 0 mm 1 m/s 692 mmHg 78%
    03:00 +19°C° 0 mm 1 m/s 692 mmHg 76%
    04:00 +20°C° 0 mm 1 m/s 692 mmHg 74%
    05:00 +21°C° 0 mm 1 m/s 692 mmHg 73%
    06:00 +22°C° 0 mm 1 m/s 692 mmHg 71%
    07:00 +23°C° 0 mm 2 m/s 692 mmHg 66%
    08:00 +25°C° 0 mm 2 m/s 692 mmHg 61%
    09:00 +26°C° 0 mm 3 m/s 692 mmHg 56%
    10:00 +27°C° 0.1 mm 3 m/s 692 mmHg 54%
    11:00 +27°C° 0.1 mm 3 m/s 691 mmHg 53%
    12:00 +28°C° 0.1 mm 4 m/s 691 mmHg 52%
    13:00 +28°C° 0.2 mm 4 m/s 691 mmHg 52%
    14:00 +27°C° 0.2 mm 3 m/s 690 mmHg 53%
    15:00 +27°C° 0.2 mm 3 m/s 690 mmHg 54%
    16:00 +26°C° 0 mm 3 m/s 690 mmHg 58%
    17:00 +26°C° 0 mm 2 m/s 689 mmHg 63%
    18:00 +25°C° 0 mm 2 m/s 689 mmHg 67%
    19:00 +24°C° 0 mm 2 m/s 689 mmHg 70%
    20:00 +23°C° 0 mm 1 m/s 689 mmHg 72%
    21:00 +22°C° 0 mm 1 m/s 689 mmHg 75%
    22:00 +21°C° 0 mm 1 m/s 689 mmHg 74%
    23:00 +21°C° 0 mm 1 m/s 689 mmHg 73%

    29 Junho, Sábado

    Tempo Temperatura Precipitação Vento Pressão Humidade
    00:00 +21°C° 0 mm 1 m/s 689 mmHg 72%
    01:00 +21°C° 0 mm 1 m/s 689 mmHg 74%
    02:00 +20°C° 0 mm 1 m/s 689 mmHg 77%
    03:00 +20°C° 0 mm 1 m/s 689 mmHg 79%
    04:00 +21°C° 0 mm 1 m/s 689 mmHg 79%
    05:00 +21°C° 0 mm 1 m/s 689 mmHg 78%
    06:00 +22°C° 0 mm 1 m/s 689 mmHg 78%
    07:00 +23°C° 0 mm 2 m/s 689 mmHg 74%
    08:00 +24°C° 0 mm 3 m/s 689 mmHg 70%
    09:00 +25°C° 0 mm 4 m/s 690 mmHg 67%
    10:00 +25°C° 0.2 mm 3 m/s 690 mmHg 67%
    11:00 +25°C° 0.2 mm 3 m/s 690 mmHg 68%
    12:00 +25°C° 0.2 mm 3 m/s 690 mmHg 68%
    13:00 +25°C° 0.5 mm 3 m/s 690 mmHg 72%
    14:00 +24°C° 0.5 mm 3 m/s 690 mmHg 75%
    15:00 +24°C° 0.5 mm 2 m/s 690 mmHg 79%
    16:00 +23°C° 2.2 mm 2 m/s 690 mmHg 84%
    17:00 +21°C° 2.2 mm 2 m/s 690 mmHg 89%
    18:00 +20°C° 2.2 mm 2 m/s 690 mmHg 95%
    19:00 +20°C° 0.4 mm 2 m/s 690 mmHg 94%
    20:00 +19°C° 0.4 mm 2 m/s 691 mmHg 93%
    21:00 +19°C° 0.4 mm 2 m/s 691 mmHg 93%
    22:00 +18°C° 1 mm 3 m/s 691 mmHg 93%
    23:00 +18°C° 1 mm 3 m/s 691 mmHg 92%

    30 Junho, Domingo

    Tempo Temperatura Precipitação Vento Pressão Humidade
    00:00 +18°C° 1 mm 3 m/s 691 mmHg 92%
    01:00 +17°C° 0.5 mm 3 m/s 691 mmHg 90%
    02:00 +17°C° 0.5 mm 3 m/s 691 mmHg 88%
    03:00 +17°C° 0.5 mm 2 m/s 691 mmHg 85%
    04:00 +17°C° 0 mm 2 m/s 692 mmHg 83%
    05:00 +17°C° 0 mm 2 m/s 692 mmHg 82%
    06:00 +18°C° 0 mm 1 m/s 692 mmHg 80%
    07:00 +18°C° 0 mm 2 m/s 692 mmHg 76%
    08:00 +19°C° 0 mm 2 m/s 692 mmHg 72%
    09:00 +20°C° 0 mm 2 m/s 692 mmHg 68%
    10:00 +20°C° 0 mm 3 m/s 692 mmHg 69%
    11:00 +20°C° 0 mm 3 m/s 692 mmHg 69%
    12:00 +21°C° 0 mm 3 m/s 692 mmHg 70%
    13:00 +21°C° 0 mm 2 m/s 692 mmHg 71%
    14:00 +20°C° 0 mm 2 m/s 692 mmHg 73%
    15:00 +20°C° 0 mm 2 m/s 692 mmHg 75%
    16:00 +20°C° 0.1 mm 2 m/s 692 mmHg 78%
    17:00 +19°C° 0.1 mm 2 m/s 692 mmHg 82%
    18:00 +19°C° 0.1 mm 2 m/s 692 mmHg 86%
    19:00 +18°C° 0.6 mm 2 m/s 693 mmHg 88%
    20:00 +17°C° 0.6 mm 3 m/s 693 mmHg 91%
    21:00 +17°C° 0.6 mm 3 m/s 693 mmHg 93%
    22:00 +16°C° 3.2 mm 3 m/s 693 mmHg 93%
    23:00 +14°C° 3.2 mm 3 m/s 693 mmHg 93%

    1 Julho, Segunda-feira

    Tempo Temperatura Precipitação Vento Pressão Humidade
    00:00 +14°C° 3.2 mm 3 m/s 693 mmHg 93%
    01:00 +14°C° 1 mm 3 m/s 693 mmHg 91%
    02:00 +14°C° 1 mm 2 m/s 693 mmHg 90%
    03:00 +14°C° 1 mm 2 m/s 693 mmHg 88%
    04:00 +14°C° 0.6 mm 2 m/s 693 mmHg 89%
    05:00 +14°C° 0.6 mm 2 m/s 693 mmHg 89%
    06:00 +14°C° 0.6 mm 2 m/s 694 mmHg 89%
    07:00 +14°C° 0.5 mm 2 m/s 694 mmHg 88%
    08:00 +15°C° 0.5 mm 2 m/s 694 mmHg 86%
    09:00 +15°C° 0.5 mm 2 m/s 694 mmHg 84%
    10:00 +14°C° 1.4 mm 2 m/s 694 mmHg 87%
    11:00 +14°C° 1.4 mm 2 m/s 694 mmHg 90%
    12:00 +13°C° 1.4 mm 3 m/s 694 mmHg 92%
    13:00 +12°C° 1.7 mm 3 m/s 694 mmHg 92%
    14:00 +12°C° 1.7 mm 3 m/s 694 mmHg 92%
    15:00 +12°C° 1.7 mm 3 m/s 694 mmHg 92%
    16:00 +13°C° 1.4 mm 2 m/s 694 mmHg 91%
    17:00 +13°C° 1.4 mm 2 m/s 694 mmHg 90%
    18:00 +13°C° 1.4 mm 1 m/s 694 mmHg 89%
    19:00 +13°C° 0.8 mm 1 m/s 695 mmHg 89%
    20:00 +13°C° 0.8 mm 1 m/s 695 mmHg 90%
    21:00 +13°C° 0.8 mm 1 m/s 695 mmHg 90%
    22:00 +13°C° 0.3 mm 1 m/s 695 mmHg 88%
    23:00 +14°C° 0.3 mm 1 m/s 695 mmHg 86%
    Mostrar mais